Location: Perryvale
(54.4667°N, 113.3833°W)
Time: 23:14:30
(UTC+00:00)

Vanguard 1 - Pass Details

Date: 30 May 2024
Orbit: 652 x 3825 km, 34.2° (Epoch: 13 June)

Event Time Altitude Azimuth Distance (km) Brightness Sun altitude
Rises 01:25:36 0° 196° (SSW) 3,638 13.1 18.4°
Reaches altitude 10° 01:29:48 10° 167° (SSE) 3,156 12.5 17.8°
Maximum altitude 01:32:52 13° 144° (SE) 3,318 12.4 17.4°
Drops below altitude 10° 01:36:32 10° 122° (ESE) 3,962 12.7 16.8°
Sets 01:43:37 0° 99° (E) 5,791 13.4 15.9°
